Location: Bamazo
(6.7448°N, 10.8189°W)
Time: 00:47:27
(UTC+00:00)

SL-16 R/B - Pass Details

Date: 18 September 2020
Orbit: 842 x 848 km, 71.0° (Epoch: 21 October)

Event Time Altitude Azimuth Distance (km) Brightness Sun altitude
Rises 19:29:06 0° 343° (NNW) 3,388 5.6 -12.7°
Reaches altitude 10° 19:31:32 10° 343° (NNW) 2,453 4.9 -13.3°
Maximum altitude 19:37:11 86° 254° (WSW) 846 2.2 -14.7°
Drops below altitude 10° 19:42:49 10° 166° (SSE) 2,454 4.4 -16.1°
Sets 19:45:15 0° 166° (SSE) 3,389 5.2 -16.7°
